GW0418 Weather Reports


time (UTC)temp
C
wind
direction
speed
KPH
gust
KPH
rain 1hr
cm
rain 24hr
cm
rain mn
cm
humidity
%
barometer
mb
20260507023029 5 296 1.6 0.0 0.00 0.00 0.00 60 1015.5
20260507021528 5 279 0.0 0.0 0.00 0.00 0.00 60 1015.5
20260507020028 5 298 4.8 0.0 0.00 0.00 0.00 58 1015.4
20260507014541 5 256 1.6 0.0 0.00 0.00 0.00 57 1015.4
20260507013026 5 281 1.6 0.0 0.00 0.00 0.00 59 1015.4
20260507011528 5 255 4.8 0.0 0.00 0.00 0.00 58 1015.4
20260507010029 5 250 4.8 0.0 0.00 0.00 0.00 56 1015.4
20260507004525 5 286 3.2 0.0 0.00 0.00 0.00 57 1015.5
20260507003024 5 281 6.4 0.0 0.00 0.00 0.00 57 1015.6
20260507001527 5 277 6.4 0.0 0.00 0.00 0.00 57 1015.7
20260507000032 5 289 8.0 0.0 0.00 0.00 0.00 55 1015.8
20260506234523 5 256 6.4 0.0 0.00 0.00 0.00 56 1015.9
20260506233023 5 287 8.0 0.0 0.00 0.00 0.00 54 1016.0
20260506231522 5 252 6.4 0.0 0.00 0.00 0.00 54 1016.1
20260506230022 5 252 8.0 0.0 0.00 0.00 0.00 56 1016.2
20260506224521 5 269 6.4 0.0 0.00 0.00 0.00 56 1016.3
20260506223021 5 298 6.4 0.0 0.00 0.00 0.00 55 1016.3
20260506221521 5 286 6.4 0.0 0.00 0.00 0.00 55 1016.4
20260506220023 5 263 9.7 0.0 0.00 0.00 0.00 56 1016.5
20260506214519 5 246 9.7 0.0 0.00 0.00 0.00 57 1016.6
20260506213019 5 266 9.7 0.0 0.00 0.00 0.00 56 1016.6
20260506211520 5 261 8.0 0.0 0.00 0.00 0.00 57 1016.6
20260506210018 5 267 9.7 0.0 0.00 0.00 0.00 56 1016.7
20260506204523 5 267 11.3 0.0 0.00 0.00 0.00 57 1016.8
20260506203018 5 253 11.3 0.0 0.00 0.00 0.00 54 1016.7
20260506201518 5 284 9.7 0.0 0.00 0.00 0.00 54 1016.7
20260506200015 5 275 9.7 0.0 0.00 0.00 0.00 53 1016.7
20260506194517 5 269 8.0 0.0 0.00 0.00 0.00 54 1016.7
20260506193012 5 215 9.7 0.0 0.00 0.00 0.00 54 1016.8
20260506191512 5 360 8.0 0.0 0.00 0.00 0.00 54 1016.7
20260506190010 5 265 8.0 0.0 0.00 0.00 0.00 55 1016.7
20260506184509 5 317 6.4 0.0 0.00 0.00 0.00 55 1016.8
20260506183007 5 307 8.0 0.0 0.00 0.00 0.00 56 1017.1
20260506181504 4 345 8.0 0.0 0.00 0.00 0.00 58 1017.3
20260506180002 4 317 6.4 0.0 0.00 0.00 0.00 62 1017.4
20260506174501 3 290 8.0 0.0 0.00 0.00 0.00 60 1017.5
20260506173106 3 281 6.4 0.0 0.00 0.00 0.00 61 1017.6
20260506171603 3 325 8.0 0.0 0.00 0.00 0.00 61 1017.8
20260506170106 3 268 6.4 0.0 0.00 0.00 0.00 63 1017.8
20260506164602 3 272 6.4 0.0 0.00 0.00 0.00 63 1017.9
20260506163111 3 312 4.8 0.0 0.00 0.00 0.00 63 1018.0
20260506161556 3 331 4.8 0.0 0.00 0.00 0.00 63 1018.1
20260506160051 2 346 4.8 0.0 0.00 0.00 0.00 65 1018.0
20260506154607 2 275 6.4 0.0 0.00 0.00 0.00 63 1018.1
20260506153055 2 16 6.4 0.0 0.00 0.00 0.00 64 1018.1
20260506151548 2 300 6.4 0.0 0.00 0.00 0.00 64 1018.0
20260506150045 2 302 6.4 0.0 0.00 0.00 0.00 64 1017.8
20260506144546 2 263 9.7 0.0 0.00 0.00 0.00 66 1017.9
20260506143056 2 307 8.0 0.0 0.00 0.00 0.00 65 1017.8
20260506141542 2 313 6.4 0.0 0.00 0.00 0.00 66 1017.7
20260506140039 2 293 6.4 0.0 0.00 0.00 0.00 65 1017.6
20260506134536 2 316 6.4 0.0 0.00 0.00 0.00 67 1017.6
20260506133034 2 322 6.4 0.0 0.00 0.00 0.00 67 1017.4
20260506131533 2 331 4.8 0.0 0.00 0.00 0.00 68 1017.3
20260506130031 2 340 6.4 0.0 0.00 0.00 0.00 67 1017.2
20260506124527 1 9 6.4 0.0 0.00 0.00 0.00 68 1017.2
20260506123028 1 295 6.4 0.0 0.00 0.00 0.00 67 1017.1
20260506121524 2 346 6.4 0.0 0.00 0.00 0.00 68 1016.9
20260506120025 1 301 6.4 0.0 0.00 0.00 0.00 68 1016.7
20260506114518 1 287 4.8 0.0 0.00 0.00 0.00 69 1016.5
20260506113018 1 298 4.8 0.0 0.00 0.00 0.00 70 1016.4
20260506111517 1 279 3.2 0.0 0.00 0.00 0.00 69 1016.3
20260506110015 1 305 4.8 0.0 0.00 0.00 0.00 70 1016.2
20260506104513 1 317 4.8 0.0 0.00 0.00 0.00 70 1016.2
20260506103013 1 292 4.8 0.0 0.00 0.00 0.00 71 1016.0
20260506101511 1 288 3.2 0.0 0.00 0.00 0.00 72 1016.0
20260506100011 1 288 3.2 0.0 0.00 0.00 0.00 73 1015.9
20260506094510 1 290 4.8 0.0 0.00 0.00 0.00 73 1015.9
20260506093009 1 288 4.8 0.0 0.00 0.00 0.00 72 1015.8
20260506091508 1 274 4.8 0.0 0.00 0.00 0.00 73 1015.8
20260506090006 1 277 3.2 0.0 0.00 0.00 0.00 73 1015.7
20260506084504 1 223 3.2 0.0 0.00 0.00 0.00 72 1015.7
20260506083002 1 272 4.8 0.0 0.00 0.00 0.00 71 1015.6
20260506081600 1 250 3.2 0.0 0.00 0.00 0.00 72 1015.6
20260506080104 1 287 3.2 0.0 0.00 0.00 0.00 72 1015.7
20260506073100 1 294 3.2 0.0 0.00 0.00 0.00 71 1015.5
20260506071556 1 309 1.6 0.0 0.00 0.00 0.00 72 1015.4
20260506061551 0 260 0.0 0.0 0.00 0.00 0.00 72 1015.4
20260506044543 2 287 3.2 0.0 0.00 0.00 0.00 67 1015.0
20260506043035 2 271 1.6 0.0 0.00 0.00 0.00 67 1014.9
20260506041534 2 294 1.6 0.0 0.00 0.00 0.00 66 1014.7
20260506040051 3 296 1.6 0.0 0.00 0.00 0.00 65 1014.6
20260506034534 3 292 3.2 0.0 0.00 0.00 0.00 63 1014.5
20260506033031 3 334 4.8 0.0 0.00 0.00 0.00 63 1014.4
20260506031544 3 278 4.8 0.0 0.00 0.00 0.00 63 1014.4
20260506030031 3 317 4.8 0.0 0.00 0.00 0.00 62 1014.5
20260506024529 3 332 4.8 0.0 0.00 0.00 0.00 61 1014.5